Weather History for Luverne, MN

Change the Weather History Date:

Monday, October 1, 2012

  Actual Average (KFSD) Record (KFSD)
Temperature  
Mean Temperature 56 °F 54 °F  
Max Temperature 69 °F 67 °F 91 °F (1963)
Min Temperature 44 °F 42 °F 23 °F (1974)
Degree Days  
Heating Degree Days 8 11  
Month to date heating degree days 11  
Since 1 July heating degree days 215  
Cooling Degree Days 0 0  
Month to date cooling degree days 0  
Year to date cooling degree days 685  
Growing Degree Days 6 (Base 50)    
Moisture  
Dew Point 36 °F    
Average Humidity 44    
Maximum Humidity 71    
Minimum Humidity 23    
Precipitation  
Precipitation 0.00 in 0.09 in 1.36 in (1930)
Month to date precipitation 0.09  
Year to date precipitation 22.25  
Snow  
Snow 0.00 in 0.00 in 2.70 in (1999)
Month to date snowfall 0.0  
Since 1 July snowfall T  
Since 1 September snowfall T  
Snow Depth -    
Sea Level Pressure  
Sea Level Pressure 29.99 in    
Wind  
Wind Speed 8 mph (North)    
Max Wind Speed 22 mph    
Max Gust Speed 30 mph    
Visibility 9 miles    
Events Rain    
T = Trace of Precipitation, MM = Missing Value Source: NWS Daily Summary

Daily Weather History Graph

Daily Weather History Graph

Search for Another Location

Airport:

Trip Planner

Search our weather history database for the weather conditions in past years. The results will help you decide how hot, cold, wet, or windy it might be!

Date:

Astronomy

Oct. 01, 2012 Rise Set
Actual Time 7:22 AM CDT 7:04 PM CDT
Civil Twilight 6:54 AM CDT 7:33 PM CDT
Nautical Twilight 6:21 AM CDT 8:06 PM CDT
Astronomical Twilight 5:47 AM CDT 8:40 PM CDT
Moon 7:37 PM CDT (10/1) 8:58 AM CDT (10/1)
Length of Visible Light 12h 39m
Length of Day
11h 41m
Full, 98% of the Moon is Illuminated
Oct 1
Full
Oct 8
Last Quarter
Oct 15
New
Oct 21
First Quarter
Oct 29
Full

Hourly Weather History & Observations

Time (CDT) Temp. Windchill Dew Point Humidity Pressure Visibility Wind Dir Wind Speed Gust Speed Precip Events Conditions
12:14 AM 46.4 °F - 33.8 °F 62% 29.93 in 10.0 mi Calm Calm - N/A   Clear
12:34 AM 46.4 °F - 35.6 °F 66% 29.93 in 7.0 mi Calm Calm - N/A   Clear
12:54 AM 46.4 °F - 37.4 °F 71% 29.93 in 7.0 mi Calm Calm - N/A   Clear
1:14 AM 46.4 °F - 35.6 °F 66% 29.93 in 10.0 mi Calm Calm - N/A   Clear
1:34 AM 46.4 °F - 33.8 °F 62% 29.93 in 10.0 mi Calm Calm - N/A   Clear
1:54 AM 46.4 °F - 33.8 °F 62% 29.93 in 10.0 mi Calm Calm - N/A   Clear
2:14 AM 44.6 °F - 35.6 °F 71% 29.93 in 10.0 mi Calm Calm - N/A   Clear
2:34 AM 48.2 °F - 33.8 °F 58% 29.93 in 10.0 mi NW 4.6 mph - N/A   Clear
2:54 AM 55.4 °F - 37.4 °F 51% 29.93 in 10.0 mi North 4.6 mph - N/A   Clear
3:15 AM 53.6 °F - 37.4 °F 54% 29.93 in 10.0 mi NNW 3.5 mph - N/A   Clear
3:34 AM 59.0 °F - 41.0 °F 51% 29.93 in 10.0 mi North 8.1 mph - N/A   Clear
3:54 AM 60.8 °F - 42.8 °F 52% 29.93 in 10.0 mi North 13.8 mph 18.4 mph N/A   Clear
4:15 AM 60.8 °F - 42.8 °F 52% 29.94 in 10.0 mi North 12.7 mph - N/A   Clear
4:34 AM 60.8 °F - 44.6 °F 55% 29.95 in 10.0 mi North 15.0 mph - N/A   Clear
4:54 AM 62.6 °F - 44.6 °F 52% 29.94 in 10.0 mi North 13.8 mph 19.6 mph N/A   Clear
5:15 AM 62.6 °F - 46.4 °F 55% 29.94 in 10.0 mi North 11.5 mph - N/A   Clear
5:34 AM 60.8 °F - 46.4 °F 59% 29.95 in 10.0 mi North 11.5 mph - N/A   Clear
5:54 AM 60.8 °F - 46.4 °F 59% 29.95 in 10.0 mi NNW 9.2 mph - N/A   Clear
6:14 AM 60.8 °F - 46.4 °F 59% 29.96 in 10.0 mi North 10.4 mph - N/A   Mostly Cloudy
6:34 AM 60.8 °F - 46.4 °F 59% 29.96 in 10.0 mi North 12.7 mph 21.9 mph N/A   Mostly Cloudy
6:54 AM 60.8 °F - 46.4 °F 59% 29.97 in 10.0 mi North 11.5 mph 20.7 mph N/A   Mostly Cloudy
7:14 AM 59.0 °F - 46.4 °F 63% 29.97 in 10.0 mi North 13.8 mph 25.3 mph N/A Rain Light Rain
7:34 AM 57.2 °F - 46.4 °F 67% 29.97 in 10.0 mi North 16.1 mph 23.0 mph N/A   Drizzle
7:54 AM 57.2 °F - 46.4 °F 67% 29.99 in 10.0 mi North 13.8 mph 21.9 mph N/A   Light Drizzle
8:14 AM 57.2 °F - 46.4 °F 67% 30.00 in 10.0 mi NNW 8.1 mph 17.3 mph N/A Rain Light Rain
8:34 AM 59.0 °F - 44.6 °F 59% 30.01 in 10.0 mi North 12.7 mph - N/A   Scattered Clouds
8:54 AM 59.0 °F - 42.8 °F 55% 30.01 in 10.0 mi North 11.5 mph - N/A   Clear
9:14 AM 60.8 °F - 42.8 °F 52% 30.02 in 10.0 mi North 12.7 mph 19.6 mph N/A   Clear
9:34 AM 60.8 °F - 42.8 °F 52% 30.02 in 10.0 mi North 13.8 mph 20.7 mph N/A   Clear
9:54 AM 60.8 °F - 41.0 °F 48% 30.03 in 10.0 mi North 16.1 mph 24.2 mph N/A   Mostly Cloudy
10:14 AM 60.8 °F - 39.2 °F 45% 30.04 in 10.0 mi North 17.3 mph 24.2 mph N/A   Overcast
10:34 AM 60.8 °F - 39.2 °F 45% 30.04 in 10.0 mi North 12.7 mph 21.9 mph N/A   Overcast
10:54 AM 62.6 °F - 37.4 °F 39% 30.05 in 10.0 mi North 12.7 mph 21.9 mph N/A   Overcast
11:14 AM 62.6 °F - 37.4 °F 39% 30.05 in 10.0 mi North 11.5 mph 20.7 mph N/A   Mostly Cloudy
11:34 AM 66.2 °F - 35.6 °F 32% 30.05 in 10.0 mi North 17.3 mph 23.0 mph N/A   Clear
11:54 AM 68.0 °F - 35.6 °F 30% 30.05 in 10.0 mi North 17.3 mph 24.2 mph N/A   Clear
12:14 PM 68.0 °F - 33.8 °F 28% 30.04 in 10.0 mi North 16.1 mph 23.0 mph N/A   Clear
12:34 PM 68.0 °F - 35.6 °F 30% 30.04 in 10.0 mi North 17.3 mph 27.6 mph N/A   Clear
12:54 PM 68.0 °F - 33.8 °F 28% 30.04 in 10.0 mi North 15.0 mph 26.5 mph N/A   Clear
1:14 PM 68.0 °F - 33.8 °F 28% 30.03 in 10.0 mi North 16.1 mph 28.8 mph N/A   Clear
1:35 PM 68.0 °F - 33.8 °F 28% 30.02 in 10.0 mi North 19.6 mph 29.9 mph N/A   Clear
1:54 PM 69.8 °F - 35.6 °F 28% 30.02 in 10.0 mi North 19.6 mph 28.8 mph N/A   Clear
2:14 PM 68.0 °F - 35.6 °F 30% 30.01 in 10.0 mi North 16.1 mph 27.6 mph N/A   Clear
2:35 PM 69.8 °F - 33.8 °F 27% 30.01 in 10.0 mi North 17.3 mph 29.9 mph N/A   Scattered Clouds
2:54 PM 69.8 °F - 33.8 °F 27% 30.00 in 10.0 mi North 19.6 mph 28.8 mph N/A   Clear
3:14 PM 69.8 °F - 33.8 °F 27% 30.01 in 10.0 mi North 19.6 mph 26.5 mph N/A   Clear
3:34 PM 69.8 °F - 33.8 °F 27% 30.00 in 10.0 mi NNW 21.9 mph 25.3 mph N/A   Clear
4:14 PM 68.0 °F - 32.0 °F 26% 30.00 in 10.0 mi North 19.6 mph 29.9 mph N/A   Clear
4:34 PM 68.0 °F - 30.2 °F 24% 30.00 in 10.0 mi North 19.6 mph 26.5 mph N/A   Clear
4:54 PM 68.0 °F - 30.2 °F 24% 30.00 in 10.0 mi North 15.0 mph 24.2 mph N/A   Clear
5:14 PM 68.0 °F - 30.2 °F 24% 30.00 in 10.0 mi North 18.4 mph 25.3 mph N/A   Clear
5:34 PM 68.0 °F - 28.4 °F 23% 30.00 in 10.0 mi North 18.4 mph 24.2 mph N/A   Clear
5:54 PM 68.0 °F - 28.4 °F 23% 30.01 in 10.0 mi North 13.8 mph 19.6 mph N/A   Clear
6:14 PM 66.2 °F - 28.4 °F 24% 30.01 in 10.0 mi North 15.0 mph 20.7 mph N/A   Clear
6:34 PM 64.4 °F - 28.4 °F 26% 30.01 in 7.0 mi North 13.8 mph 18.4 mph N/A   Clear
6:54 PM 64.4 °F - 28.4 °F 26% 30.01 in 5.0 mi North 12.7 mph 18.4 mph N/A   Haze
7:14 PM 62.6 °F - 28.4 °F 27% 30.01 in 7.0 mi North 8.1 mph - N/A   Clear
7:33 PM 60.8 °F - 28.4 °F 29% 30.02 in 5.0 mi North 8.1 mph - N/A   Haze
7:54 PM 59.0 °F - 28.4 °F 31% 30.01 in 5.0 mi NNW 5.8 mph - N/A   Haze
8:14 PM 55.4 °F - 28.4 °F 36% 30.02 in 7.0 mi NNW 6.9 mph - N/A   Clear
8:34 PM 53.6 °F - 28.4 °F 38% 30.02 in 7.0 mi NNW 6.9 mph - N/A   Clear
8:54 PM 51.8 °F - 28.4 °F 41% 30.02 in 10.0 mi North 4.6 mph - N/A   Clear
9:14 PM 53.6 °F - 28.4 °F 38% 30.03 in 7.0 mi North 6.9 mph - N/A   Clear
9:34 PM 53.6 °F - 28.4 °F 38% 30.03 in 10.0 mi North 8.1 mph - N/A   Clear
9:54 PM 51.8 °F - 28.4 °F 41% 30.03 in 7.0 mi NNW 3.5 mph - N/A   Clear
10:14 PM 50.0 °F - 28.4 °F 43% 30.03 in 10.0 mi NNW 4.6 mph - N/A   Clear
10:34 PM 50.0 °F - 28.4 °F 43% 30.03 in 5.0 mi North 4.6 mph - N/A   Haze
10:55 PM 48.2 °F - 28.4 °F 46% 30.02 in 10.0 mi NW 5.8 mph - N/A   Clear
11:14 PM 46.4 °F 44.3 °F 28.4 °F 50% 30.02 in 7.0 mi North 4.6 mph - N/A   Clear
11:34 PM 44.6 °F - 28.4 °F 53% 30.02 in 10.0 mi Calm Calm - N/A   Clear
11:55 PM 44.6 °F 43.1 °F 28.4 °F 53% 30.03 in 10.0 mi NNW 3.5 mph - N/A   Clear